FENGYUN 1C DEB, 31266

Orbit data source: Space-Track

FENGYUN 1C DEB, 31266 is space debris in SSO originally from a launch on Mon, 10 May 1999 UTC launched from the Taiyaun Space Center, China (TSC). Fengyun 1C debris stems from the Chinese weather satellite Fengyun-1C, which was intentionally destroyed by a Chinese anti-satellite missile in 2007. This event dramatically increased the amount of space debris, with thousands of trackable fragments posing hazards to satellites and human spaceflight. The Fengyun 1C debris cloud has become a focal point in discussions about space sustainability and the need for international regulations to prevent the creation of new debris.

Loading next visibility...
Identifier
31266, 1999-025BMY
Orbit
SSO
Country
Flag of CNCN / PRC
Related business
Manufacturer
Unknown
Mission
Spacecraft
Bus & Motor
Unknown
Mass
Unknown
Launch date (UTC)
1999-05-10 (27 years ago)
Launch vehicle
Unknown
Launch site
Taiyaun Space Center, China (TSC)
Object type
Payload
Rocket body
Debris
Shape & HBR
Unknown shape, 0.1 m
Radar Cross Section
Small (<0.1 m²)

Expand to show TLE details & history
Last TLE update: 2 days ago

TLE from 2 days ago
0 FENGYUN 1C DEB
1 31266U 99025BMY 26035.44573287  .00000525  00000-0  23553-3 0  9992
2 31266  99.2632  26.1783 0130930 130.9199  20.8560 14.22416708979692
Epoch: 2026-02-04T10:41Z
TLE epoch observation values (Epoch: 2026-02-04T10:41:51.319Z)
Latitude
27.33205°
Longitude
-84.08821°
Altitude
732.621 km
Speed
7.537 km/s
True Right ascension
14h 03m 57s
True Declination
27° 11' 30"
Sunlit
Object was in daylight at epoch
Visualization orbit readout
Latitude
Unknown
Longitude
Unknown
Altitude
Unknown
Speed
Unknown
Apparent Right ascension
Unknown
Apparent Declination
Unknown
Sunlit
N/A
Visualization observer readout
Local Sidereal Time
10:27:24
Azimuth
Unknown
Elevation
Unknown
Doppler factor
Unknown
Orbital elements
Apogee altitude
908.545 km
Perigee altitude
720.202 km
Semi-major axis
7,192.51 km
Eccentricity
0.01309
Inclination
99.2632°
RAAN
26.1783°
Arg. of periapsis
130.9199°
True anomaly
21.39844°
Mean anomaly
20.856°
Eccentric anomaly
21.12638°
Mean motion
3.55814 °/min
Orbital period
101.18 mins
BSTAR
0.00023553
Loading maneuver chart data...
Computing Atmospheric mass density...

Documentation

Showing up to 5 results
|